Date String (YYYY-MM-DD hh:mm:ss) UTC,Instrument flags,Ambient pressure (hPa),Sample flow (lpm),Bypass flow (lpm),Sample temperature (°C),Ambient temperature (°C),ASC tube jacket temperature (°C),LED temperature (°C),Box temperature (°C),Sample RH (%),Span deviation,Mass concentration (μg/m³),Mass concentration (μg/m³),Mass concentration (μg/m³)
DateTimeUTC,F1_M11,P_M11,Q1_M11,Q2_M11,T1_M11,T2_M11,T3_M11,T4_M11,T5_M11,U1_M11,ZSPAN_M11,X0_M11,X2_M11,X1_M11
2022-04-21 10:00:00,,0824.2,4.99,0.00,27.8,26.8,00.0,36.8,29.5,10.7,0000.0,0021.61,0005.65,0002.40
2022-04-21 10:01:00,,0824.3,5.01,0.00,27.8,26.8,00.0,36.8,29.5,10.7,0000.0,0020.89,0005.64,0002.41
2022-04-21 10:02:00,,0824.3,5.00,0.00,27.8,26.8,00.0,36.8,29.5,10.7,0000.0,0020.63,0005.53,0002.41
2022-04-21 10:03:00,,0824.3,5.00,0.00,27.8,26.8,00.0,36.8,29.5,10.7,0000.0,0019.44,0005.49,0002.41
2022-04-21 10:04:00,,0824.3,5.00,0.00,27.8,26.8,00.0,36.8,29.6,10.7,0000.0,0017.30,0005.42,0002.40
2022-04-21 10:05:00,,0824.3,5.01,0.00,27.8,26.8,00.0,36.8,29.5,10.7,0000.0,0017.34,0005.41,0002.40
2022-04-21 10:06:00,,0824.4,5.01,0.00,27.8,26.8,00.0,36.8,29.5,10.7,0000.0,0018.04,0005.50,0002.41
2022-04-21 10:07:00,,0824.4,5.00,0.00,27.8,26.8,00.0,36.8,29.5,10.7,0000.0,0018.71,0005.60,0002.43
2022-04-21 10:08:00,,0824.4,4.99,0.00,27.7,26.8,00.0,36.8,29.5,10.7,0000.0,0018.57,0005.64,0002.42
2022-04-21 10:09:00,,0824.4,4.99,0.00,27.7,26.8,00.0,36.8,29.5,10.7,0000.0,0018.81,0005.72,0002.40
2022-04-21 10:10:00,,0824.4,5.02,0.00,27.7,26.8,00.0,36.7,29.5,10.7,0000.0,0018.32,0005.77,0002.41
2022-04-21 10:11:00,,0824.5,5.00,0.00,27.7,26.8,00.0,36.7,29.5,10.7,0000.0,0017.84,0005.78,0002.41
2022-04-21 10:12:00,,0824.4,4.99,0.00,27.7,26.8,00.0,36.7,29.5,10.7,0000.0,0017.72,0005.77,0002.43
2022-04-21 10:13:00,,0824.6,5.01,0.00,27.7,26.8,00.0,36.7,29.5,10.7,0000.0,0018.18,0005.87,0002.44
2022-04-21 10:14:00,,0824.4,5.00,0.00,27.7,26.8,00.0,36.7,29.5,10.7,0000.0,0018.13,0005.88,0002.44
2022-04-21 10:15:00,,0824.4,4.99,0.00,27.7,26.8,00.0,36.7,29.5,10.7,0000.0,0018.54,0005.96,0002.45
2022-04-21 10:16:00,,0824.4,5.00,0.00,27.7,26.8,00.0,36.7,29.5,10.7,0000.0,0018.84,0005.90,0002.47
2022-04-21 10:17:00,,0824.3,4.99,0.00,27.7,26.8,00.0,36.7,29.5,10.7,0000.0,0021.37,0005.80,0002.48
2022-04-21 10:18:00,,0824.3,5.00,0.00,27.7,26.8,00.0,36.7,29.5,10.7,0000.0,0022.50,0005.77,0002.44
2022-04-21 10:19:00,,0824.4,4.99,0.00,27.7,26.8,00.0,36.7,29.5,10.7,0000.0,0022.80,0005.68,0002.44
2022-04-21 10:20:00,,0824.4,5.01,0.00,27.7,26.8,00.0,36.7,29.5,10.7,0000.0,0022.13,0005.59,0002.45
2022-04-21 10:21:00,,0824.4,5.01,0.00,27.7,26.8,00.0,36.7,29.5,10.7,0000.0,0022.20,0005.67,0002.46
2022-04-21 10:22:00,,0824.4,5.01,0.00,27.7,26.8,00.0,36.7,29.5,10.7,0000.0,0022.92,0005.67,0002.46
2022-04-21 10:23:00,,0824.4,4.99,0.00,27.7,26.8,00.0,36.7,29.5,10.7,0000.0,0023.42,0005.68,0002.44
2022-04-21 10:24:00,,0824.3,5.00,0.00,27.7,26.7,00.0,36.7,29.4,10.7,0000.0,0023.05,0005.67,0002.45
2022-04-21 10:25:00,,0824.3,5.00,0.00,27.7,26.8,00.0,36.7,29.4,10.7,0000.0,0022.80,0005.63,0002.43
2022-04-21 10:26:00,,0824.3,5.00,0.00,27.7,26.7,00.0,36.7,29.4,10.7,0000.0,0022.78,0005.63,0002.43
2022-04-21 10:27:00,,0824.3,4.99,0.00,27.6,26.7,00.0,36.7,29.4,10.7,0000.0,0022.55,0005.54,0002.40
2022-04-21 10:28:00,,0824.3,5.00,0.00,27.6,26.7,00.0,36.7,29.4,10.7,0000.0,0020.55,0005.54,0002.40
2022-04-21 10:29:00,,0824.3,5.02,0.00,27.6,26.7,00.0,36.6,29.4,10.7,0000.0,0018.17,0005.46,0002.40
2022-04-21 10:30:00,,0824.3,4.99,0.00,27.6,26.7,00.0,36.6,29.4,10.8,0000.0,0017.83,0005.45,0002.37
2022-04-21 10:31:00,,0824.3,5.00,0.00,27.6,26.7,00.0,36.6,29.4,10.8,0000.0,0018.31,0005.54,0002.36
2022-04-21 10:32:00,,0824.3,5.00,0.00,27.6,26.7,00.0,36.6,29.4,10.8,0000.0,0018.43,0005.51,0002.36
2022-04-21 10:33:00,,0824.3,5.00,0.00,27.6,26.7,00.0,36.6,29.4,10.8,0000.0,0018.53,0005.54,0002.36
2022-04-21 10:34:00,,0824.3,5.01,0.00,27.6,26.7,00.0,36.6,29.4,10.8,0000.0,0018.60,0005.51,0002.37
2022-04-21 10:35:00,,0824.3,5.00,0.00,27.6,26.7,00.0,36.6,29.4,10.8,0000.0,0018.88,0005.54,0002.36
2022-04-21 10:36:00,,0824.3,4.99,0.00,27.6,26.7,00.0,36.6,29.4,10.8,0000.0,0019.45,0005.53,0002.37
2022-04-21 10:37:00,,0824.3,5.00,0.00,27.6,26.7,00.0,36.6,29.4,10.8,0000.0,0019.51,0005.52,0002.35
2022-04-21 10:38:00,,0824.3,5.00,0.00,27.6,26.7,00.0,36.6,29.4,10.9,0000.0,0018.79,0005.56,0002.38
2022-04-21 10:39:00,,0824.3,5.01,0.00,27.6,26.7,00.0,36.6,29.3,10.8,0000.0,0018.99,0005.60,0002.40
2022-04-21 10:40:00,,0824.3,5.01,0.00,27.6,26.6,00.0,36.6,29.4,10.8,0000.0,0019.13,0005.63,0002.38
2022-04-21 10:41:00,,0824.2,5.00,0.00,27.6,26.6,00.0,36.6,29.4,10.8,0000.0,0019.85,0005.69,0002.41
2022-04-21 10:42:00,,0824.2,5.00,0.00,27.6,26.6,00.0,36.6,29.4,10.9,0000.0,0020.05,0005.71,0002.42
2022-04-21 10:43:00,,0824.2,5.00,0.00,27.5,26.6,00.0,36.6,29.4,10.9,0000.0,0020.11,0005.66,0002.40
2022-04-21 10:44:00,,0824.2,4.99,0.00,27.5,26.6,00.0,36.5,29.4,10.9,0000.0,0020.43,0005.58,0002.40
2022-04-21 10:45:00,,0824.2,5.00,0.00,27.5,26.6,00.0,36.5,29.3,10.9,0000.0,0020.37,0005.54,0002.40
2022-04-21 10:46:00,,0824.1,5.01,0.00,27.5,26.6,00.0,36.5,29.3,10.9,0000.0,0020.15,0005.54,0002.38
2022-04-21 10:47:00,,0824.2,5.01,0.00,27.5,26.6,00.0,36.5,29.3,10.9,0000.0,0019.98,0005.53,0002.37
2022-04-21 10:48:00,,0824.2,5.00,0.00,27.5,26.6,00.0,36.5,29.3,11.0,0000.0,0020.43,0005.62,0002.40
2022-04-21 10:49:00,,0824.1,5.00,0.00,27.5,26.6,00.0,36.5,29.3,10.9,0000.0,0021.22,0005.65,0002.40
2022-04-21 10:50:00,,0824.2,5.01,0.00,27.5,26.7,00.0,36.5,29.3,11.0,0000.0,0021.42,0005.66,0002.42
2022-04-21 10:51:00,,0824.2,5.00,0.00,27.5,26.6,00.0,36.5,29.3,11.0,0000.0,0021.73,0005.64,0002.44
2022-04-21 10:52:00,,0824.1,4.99,0.00,27.5,26.6,00.0,36.5,29.3,11.0,0000.0,0020.90,0005.54,0002.44
2022-04-21 10:53:00,,0824.1,5.00,0.00,27.5,26.6,00.0,36.5,29.3,10.9,0000.0,0020.67,0005.50,0002.43
2022-04-21 10:54:00,,0824.1,5.00,0.00,27.5,26.6,00.0,36.5,29.3,10.9,0000.0,0020.36,0005.57,0002.44
2022-04-21 10:55:00,,0824.2,5.01,0.00,27.5,26.6,00.0,36.5,29.3,10.9,0000.0,0019.43,0005.67,0002.45
2022-04-21 10:56:00,,0824.2,5.01,0.00,27.5,26.6,00.0,36.5,29.3,10.9,0000.0,0019.26,0005.80,0002.45
2022-04-21 10:57:00,,0824.1,4.99,0.00,27.5,26.6,00.0,36.5,29.3,10.9,0000.0,0019.32,0005.83,0002.46
2022-04-21 10:58:00,,0824.1,4.99,0.00,27.5,26.6,00.0,36.5,29.3,10.9,0000.0,0019.49,0005.84,0002.47
2022-04-21 10:59:00,,0824.2,5.00,0.00,27.5,26.6,00.0,36.5,29.3,11.0,0000.0,0019.90,0005.85,0002.48
